Location: Unspecified
(0.0000°N, 0.0000°E)
Time: 09:30:23
(UTC+00:00)

ATLAS 5 CENTAUR DEB - Pass Details

Date: 18 February 2026
Orbit: 7342 x 34659 km, 20.8° (Epoch: 6 March)

Event Time Altitude Azimuth Distance (km) Brightness Sun altitude
Rises 16:13:19 0° 258° (WSW) 12,148 ? 29.5°
Reaches altitude 10° 16:20:47 10° 252° (WSW) 11,226 ? 27.7°
Enters shadow 21:56:27 58° 71° (ENE) 35,245 ? -54.0°
Exits shadow 23:33:28 62° 52° (NE) 34,369 ? -74.8°
Maximum altitude 23:57:18 63° 48° (NE) 33,569 ? -77.9°
Drops below altitude 10° 03:56:47 10° 76° (ENE) 14,869 ? -33.5°
Sets 04:06:54 0° 81° (E) 14,681 ? -31.1°
